Simultaneous Nadir Overpasses (SNOs) Predictions

Prediction of SNOs between GOES-15 and METOP-A Satellite Orbit:

Table of predicted SNOs for the next 14.0 days since TLE Epoch: 7/14/2012
Index Date Time (GOES-15) GOES-15 Lat,Lon METOP-A Lat,Lon Distance(km) Time Diff (sec)
1 07/15/2012 06:47:28 -0.03,-135.38 -0.82,-138.81 391.54 80
2 07/16/2012 06:24:08 0.00,-135.38 0.32,-133.82 177.35 80
3 07/17/2012 18:45:40 0.04,-135.40 0.68,-138.38 339.22 80
4 07/18/2012 18:22:20 0.01,-135.40 -0.46,-133.39 229.44 80
5 07/20/2012 06:43:59 -0.05,-135.38 -0.62,-137.97 294.92 80
6 07/21/2012 06:20:39 -0.02,-135.38 0.52,-132.98 273.19 80
7 07/22/2012 18:42:09 0.06,-135.39 0.55,-137.53 244.56 80
8 07/23/2012 18:18:50 0.03,-135.38 -0.59,-132.54 323.40 80
9 07/25/2012 06:40:28
